• In Denmark
  • List of Countries
  • For 7 days
  • Water Temperature
  • Satellite Maps
  • Weather Map
  • Weather Widgets
  • user-avatar
    Login

    Hourly Weather Klagenfurt

    Today, 25 September, Monday

    Time Temperature Precipitation Wind Pressure Humidity
    00:00 +9°C° 0.4 mm 1 mps 692 mmHg 96%
    01:00 +9°C° 0.4 mm 1 mps 692 mmHg 96%
    02:00 +9°C° 0.5 mm 1 mps 692 mmHg 96%
    03:00 +9°C° 0.5 mm 1 mps 692 mmHg 96%
    04:00 +9°C° 0.5 mm 1 mps 692 mmHg 96%
    05:00 +9°C° 0.6 mm 1 mps 692 mmHg 95%
    06:00 +9°C° 0.6 mm 1 mps 692 mmHg 95%
    07:00 +9°C° 0.6 mm 1 mps 692 mmHg 95%
    08:00 +10°C° 0.8 mm 1 mps 692 mmHg 93%
    09:00 +11°C° 0.8 mm 1 mps 692 mmHg 90%
    10:00 +11°C° 0.8 mm 1 mps 692 mmHg 88%
    11:00 +12°C° 0.6 mm 1 mps 692 mmHg 86%
    12:00 +12°C° 0.6 mm 1 mps 692 mmHg 84%
    13:00 +13°C° 0.6 mm 1 mps 692 mmHg 82%
    14:00 +13°C° 0.3 mm 1 mps 692 mmHg 82%
    15:00 +13°C° 0.3 mm 1 mps 692 mmHg 81%
    16:00 +13°C° 0.3 mm 1 mps 692 mmHg 81%
    17:00 +12°C° 0.1 mm 1 mps 692 mmHg 85%
    18:00 +11°C° 0.1 mm 1 mps 692 mmHg 89%
    19:00 +10°C° 0.1 mm 1 mps 692 mmHg 93%
    20:00 +10°C° 0.1 mm 1 mps 693 mmHg 93%
    21:00 +9°C° 0.1 mm 1 mps 693 mmHg 94%
    22:00 +9°C° 0.1 mm 1 mps 693 mmHg 94%
    23:00 +9°C° 0 mm 1 mps 693 mmHg 95%

    Tomorrow, 26 September, Tuesday

    Time Temperature Precipitation Wind Pressure Humidity
    00:00 +9°C° 0 mm 1 mps 693 mmHg 95%
    01:00 +9°C° 0 mm 1 mps 693 mmHg 96%
    02:00 +8°C° 0 mm 1 mps 693 mmHg 96%
    03:00 +8°C° 0 mm 1 mps 693 mmHg 96%
    04:00 +8°C° 0 mm 1 mps 693 mmHg 96%
    05:00 +8°C° 0 mm 1 mps 693 mmHg 95%
    06:00 +9°C° 0 mm 1 mps 693 mmHg 94%
    07:00 +9°C° 0 mm 1 mps 693 mmHg 94%
    08:00 +10°C° 0.1 mm 1 mps 693 mmHg 88%
    09:00 +12°C° 0.1 mm 1 mps 694 mmHg 83%
    10:00 +13°C° 0.1 mm 1 mps 694 mmHg 78%
    11:00 +14°C° 0.2 mm 1 mps 694 mmHg 77%
    12:00 +14°C° 0.2 mm 2 mps 694 mmHg 77%
    13:00 +14°C° 0.2 mm 2 mps 694 mmHg 76%
    14:00 +14°C° 0.1 mm 2 mps 694 mmHg 77%
    15:00 +14°C° 0.1 mm 1 mps 694 mmHg 78%
    16:00 +14°C° 0.1 mm 1 mps 694 mmHg 79%
    17:00 +12°C° 0.1 mm 1 mps 694 mmHg 84%
    18:00 +11°C° 0.1 mm 1 mps 694 mmHg 89%
    19:00 +10°C° 0.1 mm 1 mps 694 mmHg 94%
    20:00 +10°C° 0.2 mm 1 mps 694 mmHg 93%
    21:00 +10°C° 0.2 mm 1 mps 695 mmHg 93%
    22:00 +10°C° 0.2 mm 1 mps 695 mmHg 93%
    23:00 +10°C° 0.1 mm 1 mps 695 mmHg 93%

    Day after tomorrow, 27 September, Wednesday

    Time Temperature Precipitation Wind Pressure Humidity
    00:00 +10°C° 0.1 mm 1 mps 695 mmHg 93%
    01:00 +10°C° 0.1 mm 1 mps 695 mmHg 93%
    02:00 +9°C° 0 mm 1 mps 695 mmHg 93%
    03:00 +9°C° 0 mm 1 mps 694 mmHg 93%
    04:00 +9°C° 0 mm 1 mps 694 mmHg 94%
    05:00 +9°C° 0 mm 1 mps 695 mmHg 93%
    06:00 +9°C° 0 mm 1 mps 695 mmHg 92%
    07:00 +9°C° 0 mm 1 mps 695 mmHg 91%
    08:00 +12°C° 0 mm 1 mps 695 mmHg 83%
    09:00 +14°C° 0 mm 1 mps 696 mmHg 74%
    10:00 +18°C° 0 mm 1 mps 696 mmHg 65%
    11:00 +18°C° 0.1 mm 1 mps 696 mmHg 64%
    12:00 +18°C° 0.1 mm 2 mps 696 mmHg 62%
    13:00 +18°C° 0.1 mm 2 mps 696 mmHg 60%
    14:00 +18°C° 0.2 mm 2 mps 696 mmHg 64%
    15:00 +17°C° 0.2 mm 2 mps 696 mmHg 69%
    16:00 +16°C° 0.2 mm 1 mps 696 mmHg 73%
    17:00 +15°C° 0.2 mm 1 mps 696 mmHg 80%
    18:00 +13°C° 0.2 mm 1 mps 696 mmHg 87%
    19:00 +11°C° 0.2 mm 1 mps 696 mmHg 94%
    20:00 +11°C° 0 mm 1 mps 696 mmHg 94%
    21:00 +10°C° 0 mm 1 mps 696 mmHg 95%
    22:00 +9°C° 0 mm 0 mps 696 mmHg 95%
    23:00 +9°C° 0 mm 0 mps 696 mmHg 95%

    28 September, Thursday

    Time Temperature Precipitation Wind Pressure Humidity
    00:00 +8°C° 0 mm 0 mps 696 mmHg 95%
    01:00 +8°C° 0 mm 0 mps 696 mmHg 96%
    02:00 +9°C° 0 mm 1 mps 695 mmHg 96%
    03:00 +9°C° 0 mm 1 mps 695 mmHg 96%
    04:00 +8°C° 0 mm 1 mps 695 mmHg 96%
    05:00 +9°C° 0 mm 1 mps 695 mmHg 95%
    06:00 +9°C° 0 mm 1 mps 696 mmHg 94%
    07:00 +9°C° 0 mm 1 mps 696 mmHg 93%
    08:00 +11°C° 0 mm 1 mps 696 mmHg 85%
    09:00 +13°C° 0 mm 1 mps 696 mmHg 76%
    10:00 +15°C° 0 mm 1 mps 697 mmHg 68%
    11:00 +16°C° 0 mm 2 mps 697 mmHg 65%
    12:00 +16°C° 0 mm 2 mps 696 mmHg 61%
    13:00 +17°C° 0 mm 2 mps 696 mmHg 58%
    14:00 +17°C° 0 mm 2 mps 696 mmHg 61%
    15:00 +16°C° 0 mm 2 mps 696 mmHg 64%
    16:00 +16°C° 0 mm 2 mps 696 mmHg 66%
    17:00 +14°C° 0 mm 1 mps 695 mmHg 74%
    18:00 +12°C° 0 mm 1 mps 695 mmHg 82%
    19:00 +10°C° 0 mm 1 mps 695 mmHg 89%
    20:00 +10°C° 0 mm 1 mps 695 mmHg 90%
    21:00 +9°C° 0 mm 1 mps 695 mmHg 91%
    22:00 +9°C° 0 mm 1 mps 695 mmHg 92%
    23:00 +9°C° 0 mm 1 mps 695 mmHg 92%

    29 September, Friday

    Time Temperature Precipitation Wind Pressure Humidity
    00:00 +8°C° 0 mm 1 mps 695 mmHg 93%
    01:00 +8°C° 0 mm 1 mps 695 mmHg 93%
    02:00 +8°C° 0 mm 1 mps 695 mmHg 93%
    03:00 +7°C° 0 mm 1 mps 695 mmHg 93%
    04:00 +7°C° 0 mm 1 mps 694 mmHg 93%
    05:00 +8°C° 0 mm 1 mps 695 mmHg 92%
    06:00 +8°C° 0 mm 1 mps 695 mmHg 90%
    07:00 +8°C° 0 mm 1 mps 695 mmHg 89%
    08:00 +11°C° 0 mm 1 mps 695 mmHg 78%
    09:00 +13°C° 0 mm 1 mps 695 mmHg 68%
    10:00 +16°C° 0 mm 2 mps 696 mmHg 57%
    11:00 +16°C° 0 mm 2 mps 695 mmHg 55%
    12:00 +17°C° 0 mm 2 mps 695 mmHg 53%
    13:00 +18°C° 0 mm 2 mps 695 mmHg 51%
    14:00 +17°C° 0 mm 2 mps 695 mmHg 54%
    15:00 +16°C° 0 mm 2 mps 694 mmHg 57%
    16:00 +16°C° 0 mm 2 mps 694 mmHg 60%
    17:00 +14°C° 0 mm 1 mps 694 mmHg 69%
    18:00 +12°C° 0 mm 1 mps 693 mmHg 77%
    19:00 +9°C° 0 mm 1 mps 693 mmHg 86%
    20:00 +9°C° 0 mm 1 mps 693 mmHg 87%
    21:00 +8°C° 0 mm 1 mps 693 mmHg 89%
    22:00 +8°C° 0 mm 1 mps 693 mmHg 90%
    23:00 +7°C° 0 mm 1 mps 693 mmHg 91%

    30 September, Saturday

    Time Temperature Precipitation Wind Pressure Humidity
    00:00 +6°C° 0 mm 0 mps 693 mmHg 91%
    01:00 +6°C° 0 mm 0 mps 693 mmHg 92%
    02:00 +6°C° 0 mm 0 mps 692 mmHg 92%
    03:00 +5°C° 0 mm 0 mps 692 mmHg 92%
    04:00 +5°C° 0 mm 0 mps 692 mmHg 92%
    05:00 +5°C° 0 mm 0 mps 692 mmHg 90%
    06:00 +6°C° 0 mm 0 mps 692 mmHg 89%
    07:00 +6°C° 0 mm 0 mps 692 mmHg 87%
    08:00 +9°C° 0 mm 1 mps 692 mmHg 76%
    09:00 +12°C° 0 mm 1 mps 692 mmHg 65%
    10:00 +14°C° 0 mm 1 mps 693 mmHg 55%
    11:00 +15°C° 0 mm 2 mps 692 mmHg 52%
    12:00 +16°C° 0 mm 2 mps 692 mmHg 50%
    13:00 +16°C° 0 mm 2 mps 692 mmHg 48%
    14:00 +16°C° 0 mm 2 mps 691 mmHg 51%
    15:00 +15°C° 0 mm 1 mps 691 mmHg 54%
    16:00 +15°C° 0 mm 1 mps 691 mmHg 57%
    17:00 +13°C° 0 mm 1 mps 691 mmHg 65%
    18:00 +10°C° 0 mm 1 mps 690 mmHg 74%
    19:00 +8°C° 0 mm 1 mps 690 mmHg 82%
    20:00 +8°C° 0 mm 1 mps 690 mmHg 83%
    21:00 +7°C° 0 mm 1 mps 690 mmHg 84%
    22:00 +7°C° 0 mm 1 mps 690 mmHg 85%
    23:00 +7°C° 0 mm 1 mps 690 mmHg 85%
    Show more